| time (UTC) | temp C | wind direction | speed KPH | gust KPH | rain 1hr cm | rain 24hr cm | rain mn cm | humidity % | barometer mb |
| 20260507052916 | 5 | 330 | 4.8 | 6.4 | 0.00 | 0.00 | 0.00 | 92 | 1013.8 |
| 20260507052419 | 5 | 330 | 4.8 | 6.4 | 0.00 | 0.00 | 0.00 | 92 | 1013.7 |
| 20260507051416 | 4 | 330 | 4.8 | 8.0 | 0.00 | 0.00 | 0.00 | 92 | 1013.5 |
| 20260507050418 | 3 | 333 | 4.8 | 6.4 | 0.00 | 0.00 | 0.00 | 92 | 1013.5 |
| 20260507045915 | 3 | 342 | 1.6 | 3.2 | 0.00 | 0.00 | 0.00 | 92 | 1013.4 |
| 20260507044914 | 2 | 342 | 3.2 | 6.4 | 0.00 | 0.00 | 0.00 | 91 | 1013.3 |
| 20260507044414 | 2 | 342 | 4.8 | 8.0 | 0.00 | 0.00 | 0.00 | 91 | 1013.3 |
| 20260507043914 | 2 | 342 | 6.4 | 9.7 | 0.00 | 0.00 | 0.00 | 91 | 1013.3 |
| 20260507043415 | 2 | 340 | 8.0 | 9.7 | 0.00 | 0.00 | 0.00 | 91 | 1013.3 |
| 20260507042915 | 2 | 342 | 6.4 | 8.0 | 0.00 | 0.00 | 0.00 | 91 | 1013.2 |
| 20260507041916 | 2 | 342 | 3.2 | 8.0 | 0.00 | 0.00 | 0.00 | 91 | 1013.1 |
| 20260507041603 | 2 | 342 | 6.4 | 9.7 | 0.00 | 0.00 | 0.00 | 91 | 1013.1 |
| 20260507041102 | 2 | 340 | 6.4 | 9.7 | 0.00 | 0.00 | 0.00 | 91 | 1013.1 |
| 20260507040415 | 2 | 339 | 8.0 | 9.7 | 0.00 | 0.00 | 0.00 | 91 | 1013.0 |
| 20260507035914 | 2 | 340 | 8.0 | 9.7 | 0.00 | 0.00 | 0.00 | 91 | 1012.9 |
| 20260507035414 | 2 | 344 | 6.4 | 8.0 | 0.00 | 0.00 | 0.00 | 90 | 1012.9 |
| 20260507034916 | 2 | 344 | 4.8 | 8.0 | 0.00 | 0.00 | 0.00 | 90 | 1012.9 |
| 20260507033914 | 2 | 344 | 8.0 | 11.3 | 0.00 | 0.00 | 0.00 | 90 | 1012.8 |
| 20260507033415 | 2 | 335 | 8.0 | 11.3 | 0.00 | 0.00 | 0.00 | 90 | 1012.7 |
| 20260507032415 | 2 | 332 | 8.0 | 9.7 | 0.00 | 0.00 | 0.00 | 90 | 1012.7 |
| 20260507031912 | 2 | 329 | 8.0 | 9.7 | 0.00 | 0.00 | 0.00 | 90 | 1012.7 |
| 20260507030914 | 2 | 337 | 6.4 | 8.0 | 0.00 | 0.00 | 0.00 | 90 | 1012.7 |
| 20260507030413 | 2 | 337 | 6.4 | 6.4 | 0.00 | 0.00 | 0.00 | 90 | 1012.7 |
| 20260507025913 | 2 | 337 | 3.2 | 4.8 | 0.00 | 0.00 | 0.00 | 90 | 1012.7 |
| 20260507025413 | 2 | 337 | 3.2 | 4.8 | 0.00 | 0.00 | 0.00 | 90 | 1012.7 |
| 20260507024912 | 2 | 337 | 1.6 | 6.4 | 0.00 | 0.00 | 0.00 | 90 | 1012.6 |
| 20260507023911 | 2 | 337 | 6.4 | 8.0 | 0.00 | 0.00 | 0.00 | 90 | 1012.6 |
| 20260507023412 | 2 | 337 | 6.4 | 8.0 | 0.00 | 0.00 | 0.00 | 90 | 1012.5 |
| 20260507022911 | 2 | 337 | 6.4 | 8.0 | 0.00 | 0.00 | 0.00 | 90 | 1012.5 |
| 20260507022412 | 2 | 335 | 6.4 | 8.0 | 0.00 | 0.00 | 0.00 | 90 | 1012.5 |
| 20260507021912 | 2 | 337 | 8.0 | 8.0 | 0.00 | 0.00 | 0.00 | 89 | 1012.5 |
| 20260507021410 | 2 | 339 | 6.4 | 8.0 | 0.00 | 0.00 | 0.00 | 89 | 1012.4 |
| 20260507020911 | 2 | 350 | 4.8 | 9.7 | 0.00 | 0.00 | 0.00 | 89 | 1012.5 |
| 20260507020411 | 2 | 349 | 8.0 | 14.5 | 0.00 | 0.00 | 0.00 | 89 | 1012.5 |
| 20260507015910 | 2 | 342 | 9.7 | 14.5 | 0.00 | 0.00 | 0.00 | 89 | 1012.4 |
| 20260507015410 | 2 | 342 | 11.3 | 14.5 | 0.00 | 0.00 | 0.00 | 89 | 1012.4 |
| 20260507014410 | 3 | 352 | 9.7 | 11.3 | 0.00 | 0.00 | 0.00 | 89 | 1012.3 |
| 20260507013413 | 3 | 349 | 9.7 | 11.3 | 0.00 | 0.00 | 0.00 | 90 | 1012.2 |
| 20260507012909 | 3 | 352 | 9.7 | 14.5 | 0.00 | 0.00 | 0.00 | 90 | 1012.2 |
| 20260507012410 | 3 | 346 | 9.7 | 14.5 | 0.00 | 0.00 | 0.00 | 90 | 1012.2 |
| 20260507011411 | 3 | 352 | 9.7 | 16.1 | 0.00 | 0.00 | 0.00 | 90 | 1012.1 |
| 20260507010910 | 3 | 344 | 9.7 | 16.1 | 0.00 | 0.00 | 0.00 | 90 | 1012.2 |
| 20260507010411 | 3 | 346 | 11.3 | 14.5 | 0.00 | 0.00 | 0.00 | 90 | 1012.0 |
| 20260507004909 | 2 | 344 | 12.9 | 14.5 | 0.00 | 0.00 | 0.00 | 89 | 1012.0 |
| 20260507003910 | 2 | 343 | 9.7 | 14.5 | 0.00 | 0.00 | 0.00 | 89 | 1012.0 |
| 20260507003408 | 2 | 343 | 9.7 | 16.1 | 0.00 | 0.00 | 0.00 | 89 | 1012.0 |
| 20260507002909 | 2 | 343 | 9.7 | 16.1 | 0.00 | 0.00 | 0.00 | 89 | 1011.9 |
| 20260507002410 | 2 | 340 | 9.7 | 11.3 | 0.00 | 0.00 | 0.00 | 88 | 1012.0 |
| 20260507001908 | 2 | 339 | 9.7 | 14.5 | 0.00 | 0.00 | 0.00 | 88 | 1012.0 |
| 20260507001408 | 2 | 337 | 11.3 | 16.1 | 0.00 | 0.00 | 0.00 | 88 | 1011.9 |
| 20260507000911 | 2 | 336 | 11.3 | 16.1 | 0.00 | 0.00 | 0.00 | 87 | 1011.9 |
| 20260507000407 | 3 | 339 | 11.3 | 16.1 | 0.00 | 0.00 | 0.00 | 87 | 1011.9 |
| 20260506235909 | 3 | 339 | 11.3 | 14.5 | 0.00 | 0.00 | 0.00 | 88 | 1012.0 |
| 20260506235408 | 3 | 346 | 9.7 | 11.3 | 0.00 | 0.00 | 0.00 | 88 | 1012.0 |
| 20260506234907 | 4 | 342 | 9.7 | 11.3 | 0.00 | 0.00 | 0.00 | 88 | 1012.0 |
| 20260506233907 | 4 | 346 | 9.7 | 14.5 | 0.00 | 0.00 | 0.00 | 88 | 1012.0 |
| 20260506233407 | 4 | 349 | 9.7 | 14.5 | 0.00 | 0.00 | 0.00 | 88 | 1012.0 |
| 20260506232910 | 5 | 349 | 11.3 | 14.5 | 0.00 | 0.00 | 0.00 | 88 | 1012.1 |
| 20260506232406 | 5 | 346 | 9.7 | 11.3 | 0.00 | 0.00 | 0.00 | 88 | 1011.9 |
| 20260506231409 | 5 | 349 | 9.7 | 14.5 | 0.00 | 0.00 | 0.00 | 88 | 1012.0 |
| 20260506230907 | 5 | 352 | 11.3 | 14.5 | 0.00 | 0.00 | 0.00 | 88 | 1012.1 |
| 20260506230407 | 5 | 359 | 11.3 | 11.3 | 0.00 | 0.00 | 0.00 | 87 | 1012.1 |
| 20260506225406 | 5 | 0 | 9.7 | 11.3 | 0.00 | 0.00 | 0.00 | 87 | 1012.0 |
| 20260506224908 | 5 | 0 | 8.0 | 11.3 | 0.00 | 0.00 | 0.00 | 87 | 1011.9 |
| 20260506222907 | 6 | 7 | 11.3 | 14.5 | 0.00 | 0.00 | 0.00 | 86 | 1011.9 |
| 20260506221905 | 6 | 7 | 11.3 | 16.1 | 0.00 | 0.00 | 0.00 | 85 | 1011.8 |
| 20260506221405 | 6 | 0 | 11.3 | 17.7 | 0.00 | 0.00 | 0.00 | 85 | 1011.7 |
| 20260506220904 | 6 | 353 | 11.3 | 17.7 | 0.00 | 0.00 | 0.00 | 85 | 1011.7 |
| 20260506220404 | 6 | 353 | 12.9 | 16.1 | 0.00 | 0.00 | 0.00 | 85 | 1011.8 |
| 20260506215904 | 6 | 3 | 11.3 | 16.1 | 0.00 | 0.00 | 0.00 | 84 | 1011.8 |
| 20260506215405 | 6 | 0 | 12.9 | 16.1 | 0.00 | 0.00 | 0.00 | 84 | 1011.8 |
| 20260506214906 | 7 | 359 | 11.3 | 20.9 | 0.00 | 0.00 | 0.00 | 83 | 1011.8 |
| 20260506214405 | 7 | 10 | 14.5 | 20.9 | 0.00 | 0.00 | 0.00 | 83 | 1011.7 |
| 20260506213408 | 7 | 6 | 12.9 | 19.3 | 0.00 | 0.00 | 0.00 | 83 | 1011.6 |
| 20260506212903 | 7 | 4 | 14.5 | 19.3 | 0.00 | 0.00 | 0.00 | 83 | 1011.6 |
| 20260506212403 | 7 | 353 | 14.5 | 19.3 | 0.00 | 0.00 | 0.00 | 83 | 1011.5 |
| 20260506211904 | 7 | 18 | 14.5 | 20.9 | 0.00 | 0.00 | 0.00 | 82 | 1011.5 |
| 20260506210903 | 8 | 14 | 14.5 | 20.9 | 0.00 | 0.00 | 0.00 | 82 | 1011.5 |
| 20260506210403 | 8 | 17 | 16.1 | 19.3 | 0.00 | 0.00 | 0.00 | 82 | 1011.4 |
| 20260506205903 | 8 | 7 | 12.9 | 19.3 | 0.00 | 0.00 | 0.00 | 82 | 1011.4 |
| 20260506204905 | 8 | 3 | 11.3 | 19.3 | 0.00 | 0.00 | 0.00 | 82 | 1011.5 |
| 20260506204403 | 8 | 6 | 14.5 | 19.3 | 0.00 | 0.00 | 0.00 | 82 | 1011.4 |
| 20260506203903 | 8 | 7 | 12.9 | 19.3 | 0.00 | 0.00 | 0.00 | 81 | 1011.4 |
| 20260506203402 | 8 | 14 | 14.5 | 19.3 | 0.00 | 0.00 | 0.00 | 81 | 1011.3 |
| 20260506202402 | 8 | 13 | 11.3 | 19.3 | 0.00 | 0.00 | 0.00 | 79 | 1011.3 |
| 20260506201902 | 8 | 17 | 14.5 | 19.3 | 0.00 | 0.00 | 0.00 | 80 | 1011.3 |
| 20260506201403 | 8 | 11 | 12.9 | 17.7 | 0.00 | 0.00 | 0.00 | 79 | 1011.3 |
| 20260506200401 | 8 | 356 | 9.7 | 19.3 | 0.00 | 0.00 | 0.00 | 79 | 1011.2 |
| 20260506195902 | 9 | 4 | 12.9 | 19.3 | 0.00 | 0.00 | 0.00 | 79 | 1011.1 |
| 20260506195401 | 8 | 7 | 12.9 | 17.7 | 0.00 | 0.00 | 0.00 | 79 | 1011.1 |
| 20260506194901 | 9 | 1 | 11.3 | 17.7 | 0.00 | 0.00 | 0.00 | 79 | 1011.0 |
| 20260506194359 | 9 | 14 | 9.7 | 17.7 | 0.00 | 0.00 | 0.00 | 78 | 1011.0 |
| 20260506193859 | 9 | 25 | 12.9 | 17.7 | 0.00 | 0.00 | 0.00 | 77 | 1011.0 |
| 20260506193400 | 9 | 18 | 12.9 | 17.7 | 0.00 | 0.00 | 0.00 | 77 | 1011.0 |
| 20260506192859 | 9 | 25 | 14.5 | 19.3 | 0.00 | 0.00 | 0.00 | 76 | 1010.9 |
| 20260506192356 | 10 | 17 | 16.1 | 22.5 | 0.00 | 0.00 | 0.00 | 75 | 1010.9 |
| 20260506191859 | 10 | 32 | 17.7 | 22.5 | 0.00 | 0.00 | 0.00 | 75 | 1010.9 |
| 20260506191357 | 10 | 21 | 16.1 | 19.3 | 0.00 | 0.00 | 0.00 | 75 | 1010.8 |
| 20260506190356 | 10 | 42 | 12.9 | 25.7 | 0.00 | 0.00 | 0.00 | 74 | 1010.7 |
| 20260506185858 | 10 | 24 | 17.7 | 25.7 | 0.00 | 0.00 | 0.00 | 73 | 1010.6 |
| 20260506184856 | 10 | 42 | 9.7 | 11.3 | 0.00 | 0.00 | 0.00 | 76 | 1010.5 |
| 20260506184358 | 10 | 11 | 6.4 | 9.7 | 0.00 | 0.00 | 0.00 | 78 | 1010.5 |
| 20260506183856 | 10 | 15 | 3.2 | 6.4 | 0.00 | 0.00 | 0.00 | 79 | 1010.4 |
| 20260506183355 | 10 | 31 | 4.8 | 6.4 | 0.00 | 0.00 | 0.00 | 78 | 1010.4 |
| 20260506182855 | 10 | 38 | 4.8 | 6.4 | 0.00 | 0.00 | 0.00 | 77 | 1010.3 |
| 20260506182356 | 10 | 49 | 4.8 | 6.4 | 0.00 | 0.00 | 0.00 | 77 | 1010.2 |
| 20260506181855 | 10 | 51 | 3.2 | 4.8 | 0.00 | 0.00 | 0.00 | 77 | 1010.2 |
| 20260506180854 | 11 | 51 | 3.2 | 6.4 | 0.00 | 0.00 | 0.00 | 76 | 1010.0 |
| 20260506180356 | 11 | 49 | 3.2 | 6.4 | 0.00 | 0.00 | 0.00 | 76 | 1009.9 |
| 20260506175855 | 11 | 49 | 4.8 | 6.4 | 0.00 | 0.00 | 0.00 | 76 | 1009.8 |
| 20260506175354 | 11 | 62 | 3.2 | 4.8 | 0.00 | 0.00 | 0.00 | 74 | 1009.7 |
| 20260506174854 | 11 | 62 | 3.2 | 6.4 | 0.00 | 0.00 | 0.00 | 74 | 1009.7 |
| 20260506174356 | 11 | 68 | 4.8 | 6.4 | 0.00 | 0.00 | 0.00 | 73 | 1009.7 |
| 20260506173854 | 11 | 111 | 1.6 | 3.2 | 0.00 | 0.00 | 0.00 | 73 | 1009.7 |
| 20260506173355 | 11 | 111 | 0.0 | 3.2 | 0.00 | 0.00 | 0.00 | 72 | 1009.6 |
| 20260506172351 | 11 | 111 | 1.6 | 4.8 | 0.00 | 0.00 | 0.00 | 72 | 1009.6 |
| 20260506171854 | 11 | 111 | 3.2 | 4.8 | 0.00 | 0.00 | 0.00 | 72 | 1009.5 |
| 20260506170852 | 11 | 110 | 0.0 | 4.8 | 0.00 | 0.00 | 0.00 | 70 | 1009.5 |
| 20260506170351 | 11 | 110 | 1.6 | 6.4 | 0.00 | 0.00 | 0.00 | 72 | 1009.5 |
| 20260506165351 | 11 | 120 | 3.2 | 4.8 | 0.00 | 0.00 | 0.00 | 72 | 1009.4 |
| 20260506164854 | 11 | 124 | 3.2 | 6.4 | 0.00 | 0.00 | 0.00 | 72 | 1009.4 |
| 20260506164352 | 11 | 97 | 3.2 | 6.4 | 0.00 | 0.00 | 0.00 | 71 | 1009.4 |
| 20260506163852 | 11 | 104 | 4.8 | 9.7 | 0.00 | 0.00 | 0.00 | 72 | 1009.4 |
| 20260506162851 | 11 | 107 | 9.7 | 9.7 | 0.00 | 0.00 | 0.00 | 71 | 1009.3 |
| 20260506162351 | 11 | 86 | 6.4 | 9.7 | 0.00 | 0.00 | 0.00 | 72 | 1009.3 |
| 20260506161850 | 11 | 104 | 6.4 | 11.3 | 0.00 | 0.00 | 0.00 | 71 | 1009.3 |
| 20260506161350 | 11 | 106 | 8.0 | 11.3 | 0.00 | 0.00 | 0.00 | 71 | 1009.3 |
| 20260506160849 | 11 | 94 | 6.4 | 14.5 | 0.00 | 0.00 | 0.00 | 71 | 1009.2 |
| 20260506160349 | 11 | 113 | 9.7 | 14.5 | 0.00 | 0.00 | 0.00 | 71 | 1009.3 |
| 20260506155849 | 11 | 118 | 9.7 | 14.5 | 0.00 | 0.00 | 0.00 | 70 | 1009.3 |
| 20260506153846 | 12 | 85 | 9.7 | 16.1 | 0.00 | 0.00 | 0.00 | 69 | 1009.3 |
| 20260506153346 | 11 | 107 | 9.7 | 16.1 | 0.00 | 0.00 | 0.00 | 69 | 1009.4 |
| 20260506152846 | 11 | 90 | 12.9 | 17.7 | 0.00 | 0.00 | 0.00 | 67 | 1009.3 |
| 20260506151847 | 12 | 109 | 11.3 | 19.3 | 0.00 | 0.00 | 0.00 | 68 | 1009.3 |
| 20260506151345 | 12 | 85 | 14.5 | 19.3 | 0.00 | 0.00 | 0.00 | 67 | 1009.3 |
| 20260506150846 | 12 | 58 | 12.9 | 24.1 | 0.00 | 0.00 | 0.00 | 67 | 1009.3 |
| 20260506150347 | 12 | 78 | 14.5 | 24.1 | 0.00 | 0.00 | 0.00 | 68 | 1009.3 |
| 20260506145845 | 12 | 58 | 16.1 | 20.9 | 0.00 | 0.00 | 0.00 | 66 | 1009.3 |
| 20260506145346 | 12 | 86 | 14.5 | 19.3 | 0.00 | 0.00 | 0.00 | 67 | 1009.2 |
| 20260506144845 | 12 | 86 | 12.9 | 19.3 | 0.00 | 0.00 | 0.00 | 67 | 1009.2 |
| 20260506143843 | 11 | 94 | 12.9 | 20.9 | 0.00 | 0.00 | 0.00 | 67 | 1009.1 |
| 20260506143344 | 11 | 63 | 14.5 | 20.9 | 0.00 | 0.00 | 0.00 | 67 | 1009.1 |
| 20260506142344 | 11 | 68 | 14.5 | 22.5 | 0.00 | 0.00 | 0.00 | 68 | 1009.1 |
| 20260506141843 | 11 | 83 | 17.7 | 22.5 | 0.00 | 0.00 | 0.00 | 67 | 1009.2 |
| 20260506141345 | 12 | 83 | 12.9 | 25.7 | 0.00 | 0.00 | 0.00 | 68 | 1009.1 |
| 20260506140844 | 12 | 82 | 19.3 | 25.7 | 0.00 | 0.00 | 0.00 | 66 | 1009.1 |
| 20260506140344 | 12 | 94 | 17.7 | 25.7 | 0.00 | 0.00 | 0.00 | 68 | 1009.1 |
| 20260506135848 | 11 | 78 | 14.5 | 22.5 | 0.00 | 0.00 | 0.00 | 68 | 1009.0 |
| 20260506135344 | 11 | 94 | 16.1 | 25.7 | 0.00 | 0.00 | 0.00 | 68 | 1009.1 |
| 20260506134844 | 11 | 97 | 20.9 | 25.7 | 0.00 | 0.00 | 0.00 | 67 | 1009.2 |
| 20260506134344 | 11 | 70 | 16.1 | 24.1 | 0.00 | 0.00 | 0.00 | 67 | 1009.1 |
| 20260506133844 | 11 | 75 | 14.5 | 20.9 | 0.00 | 0.00 | 0.00 | 68 | 1009.1 |
| 20260506133344 | 11 | 70 | 16.1 | 24.1 | 0.00 | 0.00 | 0.00 | 68 | 1009.1 |
| 20260506132844 | 11 | 82 | 14.5 | 29.0 | 0.00 | 0.00 | 0.00 | 70 | 1009.2 |
| 20260506132349 | 11 | 86 | 19.3 | 29.0 | 0.00 | 0.00 | 0.00 | 68 | 1009.1 |
| 20260506131843 | 11 | 70 | 17.7 | 29.0 | 0.00 | 0.00 | 0.00 | 67 | 1009.2 |
| 20260506131343 | 11 | 82 | 19.3 | 29.0 | 0.00 | 0.00 | 0.00 | 67 | 1009.2 |
| 20260506130845 | 10 | 90 | 19.3 | 30.6 | 0.00 | 0.00 | 0.00 | 67 | 1009.1 |
| 20260506130342 | 10 | 85 | 24.1 | 30.6 | 0.00 | 0.00 | 0.00 | 66 | 1009.1 |
| 20260506125846 | 11 | 83 | 20.9 | 27.4 | 0.00 | 0.00 | 0.00 | 66 | 1009.2 |
| 20260506125345 | 11 | 93 | 17.7 | 25.7 | 0.00 | 0.00 | 0.00 | 68 | 1009.3 |
| 20260506124342 | 11 | 51 | 16.1 | 25.7 | 0.00 | 0.00 | 0.00 | 67 | 1009.2 |
| 20260506123842 | 11 | 69 | 19.3 | 30.6 | 0.00 | 0.00 | 0.00 | 66 | 1009.2 |
| 20260506122844 | 11 | 69 | 20.9 | 27.4 | 0.00 | 0.00 | 0.00 | 66 | 1009.2 |
| 20260506122342 | 11 | 63 | 19.3 | 29.0 | 0.00 | 0.00 | 0.00 | 67 | 1009.2 |
| 20260506121842 | 11 | 70 | 16.1 | 33.8 | 0.00 | 0.00 | 0.00 | 70 | 1009.2 |
| 20260506121342 | 11 | 65 | 24.1 | 33.8 | 0.00 | 0.00 | 0.00 | 69 | 1009.2 |
| 20260506120843 | 11 | 75 | 20.9 | 30.6 | 0.00 | 0.00 | 0.00 | 69 | 1009.2 |
| 20260506120340 | 11 | 59 | 22.5 | 32.2 | 0.00 | 0.00 | 0.00 | 70 | 1009.0 |
| 20260506115841 | 11 | 56 | 24.1 | 32.2 | 0.00 | 0.00 | 0.00 | 70 | 1009.0 |
| 20260506115341 | 10 | 49 | 24.1 | 32.2 | 0.00 | 0.00 | 0.00 | 71 | 1008.9 |
| 20260506114843 | 10 | 65 | 17.7 | 25.7 | 0.00 | 0.00 | 0.00 | 72 | 1008.9 |
| 20260506114341 | 10 | 69 | 22.5 | 29.0 | 0.00 | 0.00 | 0.00 | 71 | 1008.8 |
| 20260506113842 | 10 | 51 | 17.7 | 29.0 | 0.00 | 0.00 | 0.00 | 72 | 1008.8 |
| 20260506113531 | 10 | 49 | 25.7 | 29.0 | 0.00 | 0.00 | 0.00 | 70 | 1008.8 |
| 20260506112841 | 10 | 51 | 19.3 | 24.1 | 0.00 | 0.00 | 0.00 | 70 | 1008.8 |
| 20260506112344 | 10 | 52 | 16.1 | 24.1 | 0.00 | 0.00 | 0.00 | 72 | 1008.8 |
| 20260506111841 | 10 | 51 | 17.7 | 24.1 | 0.00 | 0.00 | 0.00 | 71 | 1008.7 |
| 20260506111344 | 10 | 38 | 14.5 | 22.5 | 0.00 | 0.00 | 0.00 | 71 | 1008.7 |
| 20260506110839 | 10 | 27 | 16.1 | 27.4 | 0.00 | 0.00 | 0.00 | 72 | 1008.7 |
| 20260506110338 | 10 | 46 | 20.9 | 27.4 | 0.00 | 0.00 | 0.00 | 70 | 1008.6 |
| 20260506105839 | 10 | 39 | 12.9 | 29.0 | 0.00 | 0.00 | 0.00 | 72 | 1008.6 |
| 20260506105339 | 10 | 61 | 22.5 | 29.0 | 0.00 | 0.00 | 0.00 | 69 | 1008.7 |
| 20260506104838 | 10 | 61 | 16.1 | 27.4 | 0.00 | 0.00 | 0.00 | 72 | 1008.6 |
| 20260506104338 | 10 | 42 | 14.5 | 27.4 | 0.00 | 0.00 | 0.00 | 70 | 1008.6 |
| 20260506103839 | 10 | 46 | 16.1 | 29.0 | 0.00 | 0.00 | 0.00 | 71 | 1008.6 |
| 20260506102838 | 10 | 42 | 20.9 | 29.0 | 0.00 | 0.00 | 0.00 | 69 | 1008.5 |
| 20260506102337 | 10 | 55 | 22.5 | 29.0 | 0.00 | 0.00 | 0.00 | 68 | 1008.6 |
| 20260506101838 | 10 | 58 | 17.7 | 27.4 | 0.00 | 0.00 | 0.00 | 69 | 1008.5 |
| 20260506101337 | 10 | 56 | 16.1 | 25.7 | 0.00 | 0.00 | 0.00 | 70 | 1008.4 |
| 20260506100838 | 10 | 37 | 20.9 | 30.6 | 0.00 | 0.00 | 0.00 | 68 | 1008.5 |
| 20260506095836 | 10 | 62 | 19.3 | 27.4 | 0.00 | 0.00 | 0.00 | 68 | 1008.4 |
| 20260506095336 | 10 | 55 | 20.9 | 32.2 | 0.00 | 0.00 | 0.00 | 67 | 1008.4 |
| 20260506094337 | 10 | 49 | 24.1 | 29.0 | 0.00 | 0.00 | 0.00 | 67 | 1008.4 |
| 20260506093840 | 10 | 45 | 22.5 | 30.6 | 0.00 | 0.00 | 0.00 | 67 | 1008.3 |
| 20260506093335 | 10 | 46 | 20.9 | 30.6 | 0.00 | 0.00 | 0.00 | 68 | 1008.3 |
| 20260506092836 | 10 | 52 | 14.5 | 22.5 | 0.00 | 0.00 | 0.00 | 70 | 1008.2 |
| 20260506091835 | 10 | 44 | 17.7 | 29.0 | 0.00 | 0.00 | 0.00 | 68 | 1008.3 |
| 20260506091335 | 10 | 39 | 17.7 | 27.4 | 0.00 | 0.00 | 0.00 | 70 | 1008.1 |
| 20260506090847 | 10 | 42 | 20.9 | 27.4 | 0.00 | 0.00 | 0.00 | 69 | 1008.1 |
| 20260506090333 | 10 | 54 | 16.1 | 27.4 | 0.00 | 0.00 | 0.00 | 69 | 1008.1 |
| 20260506085832 | 10 | 35 | 19.3 | 27.4 | 0.00 | 0.00 | 0.00 | 70 | 1008.1 |
| 20260506084832 | 10 | 52 | 17.7 | 32.2 | 0.00 | 0.00 | 0.00 | 71 | 1008.1 |
| 20260506083832 | 10 | 42 | 14.5 | 27.4 | 0.00 | 0.00 | 0.00 | 73 | 1008.0 |
| 20260506083332 | 10 | 37 | 19.3 | 27.4 | 0.00 | 0.00 | 0.00 | 72 | 1008.0 |
| 20260506082832 | 10 | 44 | 16.1 | 27.4 | 0.00 | 0.00 | 0.00 | 73 | 1007.8 |
| 20260506081832 | 10 | 31 | 17.7 | 27.4 | 0.00 | 0.00 | 0.00 | 73 | 1007.9 |
| 20260506081332 | 10 | 52 | 19.3 | 27.4 | 0.00 | 0.00 | 0.00 | 74 | 1007.9 |
| 20260506080831 | 10 | 44 | 17.7 | 25.7 | 0.00 | 0.00 | 0.00 | 74 | 1007.8 |
| 20260506080330 | 10 | 54 | 19.3 | 25.7 | 0.00 | 0.00 | 0.00 | 74 | 1007.8 |
| 20260506073330 | 10 | 41 | 17.7 | 27.4 | 0.00 | 0.00 | 0.00 | 79 | 1007.7 |
| 20260506072831 | 10 | 31 | 16.1 | 25.7 | 0.00 | 0.00 | 0.00 | 79 | 1007.7 |
| 20260506072330 | 10 | 48 | 19.3 | 25.7 | 0.00 | 0.00 | 0.00 | 78 | 1007.7 |
| 20260506070831 | 10 | 35 | 17.7 | 25.7 | 0.00 | 0.00 | 0.00 | 77 | 1007.6 |
| 20260506070330 | 10 | 37 | 19.3 | 30.6 | 0.00 | 0.00 | 0.00 | 77 | 1007.6 |
| 20260506062328 | 9 | 28 | 14.5 | 22.5 | 0.00 | 0.00 | 0.00 | 77 | 1007.6 |
| 20260506061828 | 9 | 35 | 14.5 | 19.3 | 0.00 | 0.00 | 0.00 | 77 | 1007.4 |
| 20260506061328 | 9 | 28 | 14.5 | 19.3 | 0.00 | 0.00 | 0.00 | 77 | 1007.5 |
| 20260506060830 | 9 | 27 | 14.5 | 20.9 | 0.00 | 0.00 | 0.00 | 77 | 1007.4 |
| 20260506060330 | 9 | 24 | 14.5 | 20.9 | 0.00 | 0.00 | 0.00 | 77 | 1007.5 |